Weather History for Vero Beach, FL

Change the Weather History Date:

Wednesday, May 1, 2013

  Actual Average Record
Temperature  
Mean Temperature 73 °F 73 °F  
Max Temperature 82 °F 83 °F 96 °F (1971)
Min Temperature 64 °F 64 °F 47 °F (1999)
Degree Days  
Heating Degree Days 0 0  
Month to date heating degree days 0 0  
Since 1 July heating degree days 398 455  
Cooling Degree Days 8 8  
Month to date cooling degree days 8 8  
Year to date cooling degree days 599 466  
Growing Degree Days 22 (Base 50)    
Moisture  
Dew Point 67 °F    
Average Humidity 85    
Maximum Humidity 100    
Minimum Humidity 69    
Precipitation  
Precipitation 0.55 in 0.08 in 0.95 in (1966)
Month to date precipitation 0.55 0.08  
Year to date precipitation 7.58 12.09  
Sea Level Pressure  
Sea Level Pressure 29.98 in    
Wind  
Wind Speed 5 mph (ENE)    
Max Wind Speed 22 mph    
Max Gust Speed 28 mph    
Visibility 6 miles    
Events Fog , Rain    
T = Trace of Precipitation, MM = Missing Value Source: NWS Daily Summary

Daily Weather History Graph

Daily Weather History Graph

Search for Another Location

Airport:

Trip Planner

Search our weather history database for the weather conditions in past years. The results will help you decide how hot, cold, wet, or windy it might be!

Date:

Astronomy

May. 01, 2013 Rise Set
Actual Time 6:42 AM EDT 7:55 PM EDT
Civil Twilight 6:17 AM EDT 8:20 PM EDT
Nautical Twilight 5:48 AM EDT 8:49 PM EDT
Astronomical Twilight 5:17 AM EDT 9:20 PM EDT
Moon 1:02 AM EDT 12:18 PM EDT
Length of Visible Light 14h 03m
Length of Day
13h 13m
Waning Gibbous, 59% of the Moon is Illuminated
May 1
Waning Gibbous
May 2
Last Quarter
May 9
New
May 18
First Quarter
May 25
Full

Hourly Weather History & Observations

Time (EDT) Temp. Heat Index Dew Point Humidity Pressure Visibility Wind Dir Wind Speed Gust Speed Precip Events Conditions
12:29 AM 66.2 °F - 66.2 °F 100% 30.01 in 2.5 mi Calm Calm - N/A   Clear
12:37 AM 66.2 °F - 66.2 °F 100% 30.01 in 4.0 mi Calm Calm - N/A   Clear
12:41 AM 66.2 °F - 66.2 °F 100% 30.01 in 1.8 mi Calm Calm - N/A   Clear
12:51 AM 66.2 °F - 66.2 °F 100% 30.00 in 3.0 mi Calm Calm - N/A   Clear
12:53 AM 66.9 °F - 66.9 °F 100% 30.00 in 5.0 mi Calm Calm - N/A   Clear
1:21 AM 66.2 °F - 66.2 °F 100% 29.98 in 1.5 mi Calm Calm - N/A   Clear
1:30 AM 66.2 °F - 66.2 °F 100% 29.98 in 0.8 mi NE 3.5 mph - N/A   Clear
1:36 AM 66.2 °F - 66.2 °F 100% 29.98 in 2.5 mi NE 3.5 mph - N/A   Clear
1:43 AM 64.4 °F - 64.4 °F 100% 29.98 in 8.0 mi Calm Calm - N/A   Clear
1:53 AM 64.9 °F - 64.9 °F 100% 29.98 in 8.0 mi North 3.5 mph - N/A   Clear
2:41 AM 66.2 °F - 66.2 °F 100% 29.97 in 1.8 mi Calm Calm - N/A   Clear
2:53 AM 66.0 °F - 66.0 °F 100% 29.96 in 1.0 mi Calm Calm - N/A   Clear
2:59 AM 66.2 °F - 66.2 °F 100% 29.96 in 0.5 mi Calm Calm - N/A Fog Fog
3:09 AM 64.4 °F - 64.4 °F 100% 29.96 in 1.2 mi Calm Calm - N/A   Partly Cloudy
3:21 AM 64.4 °F - 64.4 °F 100% 29.96 in 4.0 mi Calm Calm - N/A   Partly Cloudy
3:53 AM 64.9 °F - 64.9 °F 100% 29.95 in 6.0 mi Calm Calm - N/A   Clear
4:02 AM 64.4 °F - 64.4 °F 100% 29.95 in 1.5 mi NE 3.5 mph - N/A   Clear
4:11 AM 64.4 °F - 64.4 °F 100% 29.95 in 3.0 mi Calm Calm - N/A   Clear
4:53 AM 68.0 °F - 68.0 °F 100% 29.96 in 6.0 mi Calm Calm - N/A   Clear
5:53 AM 66.9 °F - 66.9 °F 100% 29.95 in 10.0 mi Calm Calm - N/A   Clear
6:53 AM 68.0 °F - 68.0 °F 100% 29.97 in 10.0 mi Calm Calm - N/A   Mostly Cloudy
8:53 AM 75.0 °F - 72.0 °F 90% 30.00 in 10.0 mi East 3.5 mph - N/A   Clear
10:53 AM 75.9 °F - 70.0 °F 82% 30.03 in 10.0 mi ESE 9.2 mph - N/A   Mostly Cloudy
11:53 AM 80.1 °F 83.6 °F 71.1 °F 74% 30.02 in 10.0 mi East 9.2 mph - N/A   Partly Cloudy
12:53 PM 80.1 °F 82.9 °F 69.1 °F 69% 30.01 in 10.0 mi East 11.5 mph - N/A   Mostly Cloudy
1:53 PM 79.0 °F - 68.0 °F 69% 30.00 in 10.0 mi East 11.5 mph - N/A   Partly Cloudy
2:53 PM 80.1 °F 82.9 °F 69.1 °F 69% 29.98 in 10.0 mi ENE 12.7 mph - N/A   Scattered Clouds
3:53 PM 79.0 °F - 70.0 °F 74% 29.97 in 10.0 mi East 9.2 mph - N/A   Partly Cloudy
4:53 PM 77.0 °F - 69.1 °F 76% 29.99 in 10.0 mi East 6.9 mph - N/A   Clear
5:53 PM 75.0 °F - 71.1 °F 87% 29.99 in 5.0 mi Calm Calm - 0.04 in Rain Rain
6:07 PM 73.4 °F - 71.6 °F 94% 30.00 in 2.5 mi SSW 21.9 mph 27.6 mph 0.09 in Rain Heavy Rain
6:16 PM 69.8 °F - 66.2 °F 88% 29.99 in 2.5 mi SSW 15.0 mph 25.3 mph 0.15 in Rain Heavy Rain
6:22 PM 69.8 °F - 66.2 °F 88% 29.99 in 1.8 mi SSW 12.7 mph - 0.21 in Rain Heavy Rain
6:53 PM 69.1 °F - 66.9 °F 93% 29.97 in 6.0 mi NNW 4.6 mph - 0.44 in Rain Light Rain
7:53 PM 69.1 °F - 66.9 °F 93% 29.99 in 10.0 mi WNW 4.6 mph - 0.02 in   Mostly Cloudy
8:53 PM 68.0 °F - 68.0 °F 100% 30.00 in 10.0 mi Calm Calm - 0.00 in Rain Light Rain
9:53 PM 69.1 °F - 66.9 °F 93% 29.98 in 10.0 mi NE 4.6 mph - 0.01 in   Overcast
10:53 PM 71.1 °F - 70.0 °F 96% 29.96 in 10.0 mi NE 9.2 mph - 0.01 in   Overcast
11:53 PM 72.0 °F - 70.0 °F 93% 29.95 in 10.0 mi ENE 6.9 mph - 0.00 in   Overcast